TimePDT,TemperatureF,Dew PointF,Humidity,Sea Level PressureIn,VisibilityMPH,Wind Direction,Wind SpeedMPH,Gust SpeedMPH,PrecipitationIn,Events,Conditions,WindDirDegrees,DateUTC
12:53 AM,59.0,50.0,72,29.96,10.0,South,3.5,-,N/A,,Clear,170,2013-08-20 07:53:00
1:53 AM,54.0,46.9,77,29.96,10.0,NW,4.6,-,N/A,,Clear,320,2013-08-20 08:53:00
2:53 AM,54.0,48.9,83,29.96,10.0,Calm,Calm,-,N/A,,Clear,0,2013-08-20 09:53:00
3:53 AM,51.1,48.9,92,29.95,9.0,Calm,Calm,-,N/A,,Clear,0,2013-08-20 10:53:00
4:53 AM,50.0,45.0,83,29.96,10.0,North,4.6,-,N/A,,Clear,10,2013-08-20 11:53:00
5:53 AM,57.0,51.1,81,29.96,10.0,NNE,3.5,-,N/A,,Clear,20,2013-08-20 12:53:00
6:53 AM,50.0,45.0,83,29.99,10.0,North,3.5,-,N/A,,Partly Cloudy,350,2013-08-20 13:53:00
7:53 AM,63.0,52.0,67,29.98,10.0,NNW,9.2,-,N/A,,Partly Cloudy,330,2013-08-20 14:53:00
8:53 AM,66.0,52.0,60,29.98,8.0,NNW,13.8,-,N/A,,Clear,330,2013-08-20 15:53:00
9:53 AM,70.0,48.9,47,29.98,10.0,NNW,8.1,-,N/A,,Clear,330,2013-08-20 16:53:00
10:53 AM,-9999,-9999,N/A,30.11,-9999.0,North,-9999.0,-,N/A,,Unknown,0,2013-08-20 17:53:00
11:07 AM,-9999,-9999,N/A,30.11,10.0,North,-9999.0,-,N/A,,Clear,0,2013-08-20 18:07:00
11:53 AM,79.0,46.0,31,29.96,10.0,North,-9999.0,-,N/A,,Clear,0,2013-08-20 18:53:00
12:53 PM,81.0,46.9,30,29.96,10.0,North,-9999.0,-,N/A,,Clear,0,2013-08-20 19:53:00
1:53 PM,84.0,42.1,23,29.94,7.0,SE,4.6,-,N/A,,Clear,140,2013-08-20 20:53:00
2:53 PM,84.9,44.1,24,29.93,10.0,South,3.5,-,N/A,,Clear,180,2013-08-20 21:53:00
3:53 PM,84.9,45.0,25,29.91,10.0,SSW,4.6,-,N/A,,Clear,200,2013-08-20 22:53:00
4:53 PM,88.0,42.1,20,29.89,10.0,South,9.2,-,N/A,,Clear,180,2013-08-20 23:53:00
5:53 PM,87.1,37.0,17,29.86,10.0,WNW,6.9,-,N/A,,Scattered Clouds,300,2013-08-21 00:53:00
6:53 PM,82.9,44.1,25,29.88,10.0,SSW,9.2,-,N/A,,Scattered Clouds,210,2013-08-21 01:53:00
7:53 PM,81.0,44.1,27,29.87,10.0,Variable,3.5,-,N/A,,Mostly Cloudy,0,2013-08-21 02:53:00
8:53 PM,77.0,51.1,40,29.88,10.0,Calm,Calm,-,N/A,,Mostly Cloudy,0,2013-08-21 03:53:00
9:53 PM,75.9,48.0,37,29.90,10.0,WNW,8.1,-,N/A,,Mostly Cloudy,290,2013-08-21 04:53:00
10:53 PM,75.0,52.0,44,30.04,10.0,West,6.9,-,N/A,,Mostly Cloudy,280,2013-08-21 05:53:00
11:53 PM,73.0,46.0,38,29.90,10.0,NNW,10.4,-,N/A,,Clear,340,2013-08-21 06:53:00